sat.trackr.live / text

‹ back to catalog

STARLINK-32406

NORAD 61545 · 2024-184P

PAYLOAD ACTIVE UNKNOWN

§ Identity

Operator
Country
US
Launch date
2024-10-15
Launch site
AFWTR
Launch vehicle
Mass (kg)
RCS (m²)

Purposes: comms

External: N2YO · Heavens-Above · Gunter

§ Orbital elements

Epoch: 2026-09-21T04:31:53.562432Z

Period
93.85 min
Inclination
53.1597°
Eccentricity
0.0001375
Mean motion
15.34392924 rev/d
Perigee alt
461.8 km
Apogee alt
463.7 km
Semi-major
6,840.9 km
B*
2.5478e-5
RAAN
182.6910°
Arg perigee
65.8659°
Mean anomaly
294.2487°
Rev number
10,848

§ Raw data

STARLINK-324061 61545U 24184P   26264.18881438  .00000484  00000+0  25478-4 0  99962 61545  53.1597 182.6910 0001375  65.8659 294.2487 15.34392924108484

JSON: /api/v1/satellites/61545 · /tle

For live sub-satellite position, see the globe view (requires WebGL).

§ Visibility from observer

Set your observer location to see the next 7 days of passes ≥ 10°. The values pass through the URL so the page stays shareable.

No JS? Fill the form by hand. The geolocation button needs JavaScript.